When you browse on this site, cookies collect data to enhance your experience and personalize the content and advertising you see.
Visit our Privacy Policy to learn more. By continuing to use the site, you agree to this use of cookies and data.
  • In Österreich
  • Länderverzeichnis
  • Für 7 Tage
  • Wassertemperatur
  • Wetterkarte
  • News
  • Widgets
  • user-avatar
    Anmelden

    Stündliche Wetter Machdia

    Heute, 27 Januar, Montag

    Zeit Temperatur Niederschläge Wind Luftdruck Luftfeuchtigkeit
    00:00 +13°C° 0 mm 5 m/S 766 mmHg 68%
    01:00 +13°C° 0 mm 4 m/S 767 mmHg 70%
    02:00 +13°C° 0 mm 5 m/S 767 mmHg 71%
    03:00 +12°C° 0 mm 5 m/S 766 mmHg 73%
    04:00 +12°C° 0 mm 5 m/S 766 mmHg 74%
    05:00 +12°C° 0 mm 5 m/S 766 mmHg 75%
    06:00 +12°C° 0 mm 5 m/S 767 mmHg 76%
    07:00 +12°C° 0 mm 5 m/S 767 mmHg 78%
    08:00 +13°C° 0 mm 6 m/S 767 mmHg 71%
    09:00 +14°C° 0 mm 6 m/S 768 mmHg 64%
    10:00 +15°C° 0 mm 6 m/S 768 mmHg 58%
    11:00 +16°C° 0 mm 6 m/S 768 mmHg 55%
    12:00 +17°C° 0 mm 5 m/S 768 mmHg 52%
    13:00 +19°C° 0 mm 5 m/S 768 mmHg 49%
    14:00 +19°C° 0 mm 4 m/S 768 mmHg 49%
    15:00 +19°C° 0 mm 4 m/S 767 mmHg 50%
    16:00 +19°C° 0 mm 3 m/S 767 mmHg 50%
    17:00 +18°C° 0 mm 3 m/S 767 mmHg 56%
    18:00 +16°C° 0 mm 2 m/S 768 mmHg 63%
    19:00 +15°C° 0 mm 2 m/S 768 mmHg 70%
    20:00 +15°C° 0 mm 2 m/S 768 mmHg 73%
    21:00 +14°C° 0 mm 2 m/S 768 mmHg 76%
    22:00 +14°C° 0 mm 2 m/S 769 mmHg 80%
    23:00 +14°C° 0 mm 2 m/S 769 mmHg 80%

    Morgen, 28 Januar, Dienstag

    Zeit Temperatur Niederschläge Wind Luftdruck Luftfeuchtigkeit
    00:00 +13°C° 0 mm 2 m/S 769 mmHg 80%
    01:00 +13°C° 0 mm 2 m/S 769 mmHg 80%
    02:00 +13°C° 0 mm 2 m/S 768 mmHg 81%
    03:00 +12°C° 0 mm 2 m/S 768 mmHg 81%
    04:00 +12°C° 0 mm 2 m/S 767 mmHg 82%
    05:00 +11°C° 0 mm 3 m/S 768 mmHg 81%
    06:00 +11°C° 0 mm 3 m/S 768 mmHg 81%
    07:00 +11°C° 0 mm 4 m/S 768 mmHg 81%
    08:00 +12°C° 0 mm 5 m/S 768 mmHg 72%
    09:00 +14°C° 0 mm 5 m/S 768 mmHg 62%
    10:00 +16°C° 0 mm 6 m/S 768 mmHg 53%
    11:00 +17°C° 0 mm 6 m/S 768 mmHg 49%
    12:00 +19°C° 0 mm 5 m/S 768 mmHg 45%
    13:00 +20°C° 0 mm 5 m/S 767 mmHg 40%
    14:00 +20°C° 0 mm 5 m/S 767 mmHg 39%
    15:00 +20°C° 0 mm 4 m/S 766 mmHg 37%
    16:00 +20°C° 0 mm 3 m/S 766 mmHg 36%
    17:00 +19°C° 0 mm 3 m/S 766 mmHg 43%
    18:00 +17°C° 0 mm 3 m/S 766 mmHg 50%
    19:00 +14°C° 0 mm 3 m/S 767 mmHg 57%
    20:00 +14°C° 0 mm 3 m/S 767 mmHg 59%
    21:00 +14°C° 0 mm 3 m/S 767 mmHg 62%
    22:00 +13°C° 0 mm 3 m/S 768 mmHg 65%
    23:00 +13°C° 0 mm 3 m/S 768 mmHg 70%

    übermorgen, 29 Januar, Mittwoch

    Zeit Temperatur Niederschläge Wind Luftdruck Luftfeuchtigkeit
    00:00 +13°C° 0 mm 2 m/S 768 mmHg 75%
    01:00 +13°C° 0 mm 1 m/S 767 mmHg 79%
    02:00 +13°C° 0 mm 1 m/S 767 mmHg 80%
    03:00 +12°C° 0 mm 1 m/S 767 mmHg 81%
    04:00 +12°C° 0 mm 1 m/S 767 mmHg 82%
    05:00 +12°C° 0 mm 1 m/S 767 mmHg 81%
    06:00 +12°C° 0 mm 2 m/S 767 mmHg 80%
    07:00 +12°C° 0 mm 2 m/S 767 mmHg 78%
    08:00 +14°C° 0 mm 2 m/S 767 mmHg 69%
    09:00 +16°C° 0 mm 2 m/S 767 mmHg 59%
    10:00 +17°C° 0 mm 3 m/S 767 mmHg 49%
    11:00 +19°C° 0 mm 3 m/S 767 mmHg 45%
    12:00 +20°C° 0 mm 3 m/S 767 mmHg 42%
    13:00 +21°C° 0 mm 2 m/S 766 mmHg 38%
    14:00 +21°C° 0 mm 3 m/S 766 mmHg 38%
    15:00 +21°C° 0 mm 3 m/S 766 mmHg 38%
    16:00 +21°C° 0 mm 3 m/S 765 mmHg 37%
    17:00 +20°C° 0 mm 3 m/S 765 mmHg 41%
    18:00 +19°C° 0 mm 3 m/S 766 mmHg 45%
    19:00 +17°C° 0 mm 3 m/S 766 mmHg 50%
    20:00 +17°C° 0 mm 3 m/S 766 mmHg 50%
    21:00 +17°C° 0 mm 3 m/S 766 mmHg 50%
    22:00 +16°C° 0 mm 3 m/S 766 mmHg 50%
    23:00 +16°C° 0 mm 3 m/S 766 mmHg 53%

    30 Januar, Donnerstag

    Zeit Temperatur Niederschläge Wind Luftdruck Luftfeuchtigkeit
    00:00 +16°C° 0 mm 3 m/S 766 mmHg 56%
    01:00 +14°C° 0 mm 3 m/S 766 mmHg 59%
    02:00 +14°C° 0 mm 3 m/S 766 mmHg 60%
    03:00 +14°C° 0 mm 3 m/S 766 mmHg 61%
    04:00 +13°C° 0 mm 3 m/S 766 mmHg 62%
    05:00 +13°C° 0 mm 3 m/S 766 mmHg 62%
    06:00 +13°C° 0 mm 3 m/S 766 mmHg 62%
    07:00 +13°C° 0 mm 3 m/S 766 mmHg 63%
    08:00 +14°C° 0 mm 4 m/S 767 mmHg 59%
    09:00 +17°C° 0 mm 4 m/S 767 mmHg 55%
    10:00 +18°C° 0 mm 4 m/S 768 mmHg 50%
    11:00 +19°C° 0 mm 4 m/S 767 mmHg 49%
    12:00 +19°C° 0 mm 4 m/S 767 mmHg 48%
    13:00 +20°C° 0 mm 4 m/S 767 mmHg 47%
    14:00 +20°C° 0 mm 4 m/S 767 mmHg 49%
    15:00 +20°C° 0 mm 3 m/S 767 mmHg 51%
    16:00 +19°C° 0 mm 3 m/S 767 mmHg 53%
    17:00 +18°C° 0 mm 3 m/S 767 mmHg 59%
    18:00 +17°C° 0 mm 2 m/S 767 mmHg 65%
    19:00 +16°C° 0 mm 2 m/S 767 mmHg 71%
    20:00 +16°C° 0 mm 2 m/S 768 mmHg 72%
    21:00 +16°C° 0 mm 2 m/S 768 mmHg 72%
    22:00 +16°C° 0 mm 2 m/S 768 mmHg 72%
    23:00 +16°C° 0 mm 2 m/S 768 mmHg 71%

    31 Januar, Freitag

    Zeit Temperatur Niederschläge Wind Luftdruck Luftfeuchtigkeit
    00:00 +16°C° 0 mm 2 m/S 768 mmHg 70%
    01:00 +16°C° 0 mm 2 m/S 768 mmHg 69%
    02:00 +15°C° 0 mm 2 m/S 768 mmHg 72%
    03:00 +14°C° 0 mm 3 m/S 768 mmHg 74%
    04:00 +13°C° 0 mm 3 m/S 767 mmHg 76%
    05:00 +13°C° 0 mm 4 m/S 767 mmHg 77%
    06:00 +13°C° 0 mm 4 m/S 767 mmHg 79%
    07:00 +13°C° 0 mm 4 m/S 767 mmHg 80%
    08:00 +14°C° 0 mm 4 m/S 767 mmHg 71%
    09:00 +15°C° 0 mm 5 m/S 767 mmHg 61%
    10:00 +16°C° 0 mm 5 m/S 768 mmHg 52%
    11:00 +19°C° 0 mm 5 m/S 767 mmHg 46%
    12:00 +20°C° 0 mm 5 m/S 767 mmHg 40%
    13:00 +21°C° 0 mm 4 m/S 766 mmHg 33%
    14:00 +22°C° 0 mm 4 m/S 766 mmHg 33%
    15:00 +22°C° 0 mm 4 m/S 766 mmHg 33%
    16:00 +22°C° 0 mm 4 m/S 766 mmHg 33%
    17:00 +20°C° 0 mm 4 m/S 766 mmHg 39%
    18:00 +19°C° 0 mm 3 m/S 766 mmHg 44%
    19:00 +17°C° 0 mm 3 m/S 766 mmHg 50%
    20:00 +17°C° 0 mm 3 m/S 766 mmHg 51%
    21:00 +17°C° 0 mm 3 m/S 767 mmHg 52%
    22:00 +17°C° 0 mm 3 m/S 767 mmHg 53%
    23:00 +17°C° 0 mm 3 m/S 767 mmHg 54%

    1 Februar, Samstag

    Zeit Temperatur Niederschläge Wind Luftdruck Luftfeuchtigkeit
    00:00 +16°C° 0 mm 3 m/S 767 mmHg 56%
    01:00 +16°C° 0 mm 3 m/S 766 mmHg 58%
    02:00 +14°C° 0 mm 3 m/S 766 mmHg 58%
    03:00 +14°C° 0 mm 3 m/S 766 mmHg 59%
    04:00 +15°C° 0 mm 2 m/S 766 mmHg 59%
    05:00 +13°C° 0 mm 3 m/S 766 mmHg 61%
    06:00 +13°C° 0 mm 3 m/S 766 mmHg 63%
    07:00 +13°C° 0 mm 3 m/S 767 mmHg 64%
    08:00 +14°C° 0 mm 3 m/S 767 mmHg 60%
    09:00 +16°C° 0 mm 3 m/S 767 mmHg 56%
    10:00 +18°C° 0 mm 3 m/S 767 mmHg 52%
    11:00 +19°C° 0 mm 3 m/S 767 mmHg 49%
    12:00 +19°C° 0 mm 3 m/S 767 mmHg 45%
    13:00 +20°C° 0 mm 3 m/S 766 mmHg 42%
    14:00 +20°C° 0 mm 3 m/S 766 mmHg 44%
    15:00 +20°C° 0 mm 3 m/S 766 mmHg 46%
    16:00 +20°C° 0 mm 3 m/S 766 mmHg 48%
    17:00 +18°C° 0 mm 2 m/S 767 mmHg 54%
    18:00 +17°C° 0 mm 2 m/S 767 mmHg 61%
    19:00 +16°C° 0 mm 2 m/S 767 mmHg 68%
    20:00 +16°C° 0 mm 1 m/S 767 mmHg 70%
    21:00 +15°C° 0 mm 1 m/S 768 mmHg 73%
    22:00 +15°C° 0 mm 1 m/S 768 mmHg 75%
    23:00 +15°C° 0 mm 1 m/S 768 mmHg 74%
    Mehr zeigen